Location: Goettingen
(51.5300°N, 9.9433°E)
Time: 21:27:32
(UTC+02:00)

ISS - Pass Details

Date: 29 May 2017
Orbit: 402 x 409 km, 51.6° (Epoch: 25 May)

Event Time Altitude Azimuth Distance (km) Brightness Sun altitude
Rises 22:20:10 0° 254° (WSW) 2,330 0.4 -7.1°
Reaches altitude 10° 22:22:15 10° 253° (WSW) 1,470 -0.7 -7.3°
Maximum altitude 22:25:32 77° 168° (SSE) 423 -3.9 -7.6°
Drops below altitude 10° 22:28:50 10° 81° (E) 1,470 -1.3 -7.9°
Sets 22:30:55 0° 80° (E) 2,331 -0.3 -8.1°
